Home > Weather > Passau > Past weeks

Flag for Germany Weather for the Past 2 Weeks in Passau, Bavaria, Germany

Now
30 °F

Overcast.


Feels Like: 30 °F
Forecast: 33 / 47 °F
Wind: 1 mph from North

Location: Linz / Hoersching-Flughafen

Current Time: Feb 13, 2016 at 4:11:30 AM

Latest Report: Feb 13, 2016 at 3:20 AM


Visibility: N/A

Pressure: 29.39 "Hg

Humidity: 93%

Dew point: 28 °F

Location of PassauLocation

Historic Weather in Passau — Graph

°F

Passau Temperature Yesterday

Maximum temperature yesterday: 41 °F (at 3:50 PM)
Minimum temperature yesterday: 25 °F (at 5:20 AM)
Average temperature yesterday: 31 °F

High & Low Weather Summary for the Past Weeks

 TemperatureHumidityPressure
High55 °F (Feb 1, 11:20 AM)100% (Jan 29, 3:20 AM)30.45 "Hg (Jan 29, 3:20 AM)
Low25 °F (Feb 12, 5:20 AM)47% (Feb 8, 1:50 PM)29.24 "Hg (Feb 9, 9:20 PM)
Average40 °F84%29.95 "Hg
* Reported Jan 29 2:50 AM — Feb 13 2:50 AM, Passau, Weather by CustomWeather, © 2016

Note: Actual official high and low records may vary slightly from our data, if they occured in-between our weather recording intervals... More about our weather records

Advertising

Passau Weather History for the Previous 24 Hours

 ConditionsComfort  
Time TempWeatherWind HumidityBarometerVisibility
2:50 AM
Sat, Feb 13
30 °FPassing clouds.1 mph93%29.39 "HgN/A
2:20 AM30 °FPassing clouds.2 mph93%29.39 "HgN/A
1:50 AM30 °FPassing clouds.2 mph93%29.39 "HgN/A
1:20 AM30 °FOvercast.2 mph86%29.39 "HgN/A
12:50 AM30 °FPassing clouds.3 mph93%29.39 "HgN/A
11:50 PM
Fri, Feb 12
30 °FPassing clouds.2 mph86%29.39 "HgN/A
11:20 PM30 °FChilly.2 mph93%29.42 "HgN/A
10:50 PM32 °FClear.3 mph87%29.42 "Hg10 mi
10:20 PM32 °FClear.5 mph87%29.39 "Hg10 mi
9:50 PM34 °FPassing clouds.8 mph81%29.39 "HgN/A
9:20 PM34 °FPartly cloudy.9 mph81%29.42 "HgN/A
8:50 PM34 °FPartly cloudy.7 mph81%29.42 "HgN/A
7:50 PM36 °FPassing clouds.9 mph75%29.42 "HgN/A
7:20 PM36 °FPassing clouds.9 mph81%29.45 "HgN/A
6:50 PM36 °FPassing clouds.9 mph81%29.45 "HgN/A
6:20 PM36 °FPassing clouds.9 mph81%29.47 "HgN/A
5:50 PM36 °FPassing clouds.7 mph81%29.47 "HgN/A
5:20 PM37 °FPassing clouds.8 mph75%29.50 "HgN/A
4:50 PM39 °FPassing clouds.8 mph70%29.50 "HgN/A
4:20 PM39 °FPassing clouds.9 mph70%29.53 "HgN/A
3:50 PM41 °FPassing clouds.8 mph66%29.53 "HgN/A
3:20 PM39 °FPassing clouds.6 mph70%29.56 "HgN/A
2:50 PM37 °FPassing clouds.6 mph81%29.56 "HgN/A
2:20 PM37 °FPassing clouds.2 mph81%29.59 "Hg5 mi
1:50 PM34 °FFog.2 mph93%29.59 "Hg3 mi
1:20 PM32 °FIce fog.3 mph100%29.62 "Hg1 mi
12:50 PM32 °FIce fog.5 mph100%29.62 "Hg1 mi
12:20 PM30 °FMostly cloudy.2 mph100%29.65 "Hg1 mi
11:50 AM30 °FIce fog.2 mph100%29.68 "Hg1 mi
11:20 AM30 °FIce fog.1 mph93%29.68 "Hg1 mi
10:50 AM30 °FIce fog.2 mph100%29.68 "Hg0 mi
10:20 AM28 °FIce fog.2 mph100%29.71 "Hg0 mi
9:50 AM28 °FIce fog.1 mph100%29.71 "Hg1 mi
9:20 AM28 °FIce fog.2 mph100%29.71 "Hg1 mi
8:50 AM28 °FIce fog.2 mph100%29.71 "Hg0 mi
8:20 AM28 °FIce fog.3 mph100%29.71 "Hg1 mi
7:50 AM28 °FIce fog.3 mph100%29.71 "Hg0 mi
7:20 AM28 °FIce fog.2 mph100%29.71 "Hg1 mi
6:50 AM28 °FIce fog.1 mph100%29.74 "Hg1 mi
6:20 AM28 °FPartly cloudy.3 mph100%29.74 "Hg1 mi
5:50 AM27 °FPartly cloudy.2 mph100%29.74 "Hg0 mi
5:20 AM25 °FPassing clouds.3 mph100%29.74 "Hg0 mi
4:50 AM27 °FPassing clouds.3 mph93%29.74 "Hg5 mi
4:20 AM27 °FPassing clouds.1 mph100%29.74 "Hg5 mi
Weather by CustomWeather, © 2016

See weather overviewHow to use our weather pages